Location: Washington
(38.8950°N, 77.0370°W)
Time: 05:27:32
(UTC-05:00)

Amateur Radio Satellites - All Passes

Search period start: 07 February 2016 04:57
Search period end: 08 February 2016 04:57
Location: Washington, 38.8950°N, 77.0370°W

Satellite Date Start Highest point End Downlink Frequencies (MHz)
Time Altitude Azimuth
YUBILEINY 07 Feb 05:02:58 05:10:41 34° 288° (WNW) 05:18:31 435.215
AIST 2 07 Feb 05:07:03 05:11:09 65° 241° (WSW) 05:15:12 435.215
AO-7 07 Feb 05:21:31 05:29:05 41° 298° (WNW) 05:36:37 29.400- 29.500
PHONESAT 2.4 07 Feb 05:36:12 05:39:29 76° 10° (N) 05:42:44 2401.200-2431.200
STRAND 1 07 Feb 05:54:48 05:59:30 39° 70° (ENE) 06:04:14 437.568
CUTE-I 07 Feb 05:55:04 06:00:01 36° 98° (E) 06:04:56 437.470
SO-50 07 Feb 06:05:37 06:10:26 61° 304° (WNW) 06:15:22 436.795
Cubesat XI-IV 07 Feb 06:07:35 06:12:47 47° 100° (E) 06:17:57 437.490
BRITE-PL 07 Feb 06:11:45 06:15:45 26° 93° (E) 06:19:30 437.365/2234.400
LilacSat-2 07 Feb 06:14:57 06:18:39 49° 100° (E) 06:22:18 437.200
PRISM 07 Feb 06:20:57 06:23:54 19° 67° (ENE) 06:26:54 437.425
CUBESAT XI-V 07 Feb 06:36:25 06:37:36 11° 271° (W) 06:38:47 437.345
Cosmos 2504 07 Feb 06:42:41 06:50:16 35° 288° (WNW) 06:58:13 435.465 / 435.565
HO-68 07 Feb 07:11:16 07:16:06 19° 92° (E) 07:20:54 435.675
PHONESAT 2.4 07 Feb 07:13:38 07:16:38 34° 206° (SSW) 07:19:38 2401.200-2431.200
O/OREOS (USA 219) 07 Feb 07:20:32 07:22:33 13° 98° (E) 07:24:34 437.305
CANX-2 07 Feb 07:30:21 07:33:27 19° 94° (E) 07:36:34 2200.000
DOVE 4 07 Feb 07:30:36 07:34:40 42° 98° (E) 07:38:36 437.250
GOMX 1 07 Feb 07:33:29 07:38:01 83° 283° (WNW) 07:42:17 467.674
STRAND 1 07 Feb 07:34:45 07:38:46 23° 265° (W) 07:42:49 437.568
CUTE-I 07 Feb 07:35:23 07:39:53 28° 294° (WNW) 07:44:22 437.470
Cubesat XI-IV 07 Feb 07:48:28 07:52:29 22° 296° (WNW) 07:56:30 437.490
BRITE-PL 07 Feb 07:50:04 07:54:13 29° 292° (WNW) 07:58:06 437.365/2234.400
SO-50 07 Feb 07:50:46 07:51:59 11° 324° (NW) 07:53:10 436.795
LilacSat-2 07 Feb 07:51:33 07:52:31 11° 295° (WNW) 07:53:28 437.200
PRISM 07 Feb 07:55:16 07:59:00 32° 262° (W) 08:02:47 437.425
Cosmos 2499 07 Feb 08:13:37 08:15:27 11° 73° (ENE) 08:17:16 435.465 / 435.565
CUTE 1.7 + AOD 2 07 Feb 08:20:39 08:24:55 65° 100° (E) 08:29:10 437.475
COMPASS 1 07 Feb 08:24:14 08:28:10 38° 98° (E) 08:32:07 437.405
GONETS M04 07 Feb 08:30:20 08:38:13 41° 87° (E) 08:46:06
SEEDS 07 Feb 08:32:34 08:36:48 67° 100° (E) 08:41:02 437.485
ANTELSAT 07 Feb 08:37:53 08:40:07 14° 65° (ENE) 08:42:20 437.575/2403.000
TIGRISAT 07 Feb 08:45:23 08:48:02 16° 66° (ENE) 08:50:40 435.000
CINEMA 3 07 Feb 08:47:43 08:51:52 75° 284° (WNW) 08:56:00 145.822/145.860
ZACube-1 07 Feb 08:48:32 08:51:26 18° 94° (E) 08:54:20 437.345
AAUSAT CUBESAT 2 07 Feb 08:55:43 08:59:56 75° 101° (E) 09:04:08 437.432
O/OREOS (USA 219) 07 Feb 08:57:02 09:01:25 53° 294° (WNW) 09:05:50 437.305
HO-68 07 Feb 08:57:13 09:04:25 75° 288° (WNW) 09:11:35 435.675
FUNcube-1 07 Feb 08:58:54 09:02:12 22° 95° (E) 09:05:33 145.935
DELFI C3 07 Feb 09:00:03 09:02:37 16° 93° (E) 09:05:11 145.870
CANX-2 07 Feb 09:05:31 09:09:22 33° 289° (WNW) 09:13:13 2200.000
DOVE 4 07 Feb 09:09:32 09:12:00 15° 295° (WNW) 09:14:24 437.250
CUBEBUG 2 07 Feb 09:15:20 09:19:31 77° 102° (ESE) 09:23:45 437.445
UWE-3 07 Feb 09:22:38 09:26:48 66° 101° (E) 09:31:01 435.000/436.395/437.385
UNISAT 6 07 Feb 09:27:05 09:31:17 48° 74° (ENE) 09:35:26 437.425
QB50P1 07 Feb 09:27:38 09:29:04 12° 64° (ENE) 09:30:29 145.935-145.965
AO-85 07 Feb 09:29:38 09:30:24 10° 103° (ESE) 09:31:10 145.980
HUMSAT D 07 Feb 09:33:53 09:36:35 17° 93° (E) 09:39:17 437.325/437.525
Oscar 11 07 Feb 09:35:53 09:40:15 85° 100° (E) 09:44:36 145.826/435.025
AIST 1 07 Feb 09:46:07 09:47:24 11° 84° (E) 09:48:40
Cosmos 2499 07 Feb 09:58:15 10:06:43 66° 92° (E) 10:15:30 435.465 / 435.565
CUTE 1.7 + AOD 2 07 Feb 09:59:04 10:00:12 11° 296° (WNW) 10:01:20 437.475
COMPASS 1 07 Feb 10:00:41 10:03:27 17° 293° (WNW) 10:06:12 437.405
SEEDS 07 Feb 10:11:05 10:11:56 11° 297° (WNW) 10:12:48 437.485
ANTELSAT 07 Feb 10:12:11 10:16:25 50° 260° (W) 10:20:36 437.575/2403.000
POLYITAN 1 07 Feb 10:16:03 10:20:02 40° 72° (ENE) 10:24:00 437.675
QB50P2 07 Feb 10:16:49 10:20:50 42° 73° (ENE) 10:24:51 145.880/145.840
TIGRISAT 07 Feb 10:20:15 10:24:24 42° 261° (W) 10:28:30 435.000
ZACube-1 07 Feb 10:24:00 10:27:48 34° 288° (WNW) 10:31:39 437.345
GONETS M04 07 Feb 10:26:52 10:34:55 42° 286° (WNW) 10:43:03
VELOX 1 07 Feb 10:28:09 10:29:59 12° 91° (E) 10:31:48 145.980
DELFI C3 07 Feb 10:33:57 10:37:39 35° 288° (WNW) 10:41:20 145.870
FUNcube-1 07 Feb 10:34:53 10:38:26 27° 290° (WNW) 10:42:02 145.935
BUGSAT 1 07 Feb 10:36:06 10:39:52 32° 71° (ENE) 10:43:38 437.445
AISAT 07 Feb 10:43:05 10:46:17 19° 94° (E) 10:49:29 437.250
POPSAT HIP 1 07 Feb 10:47:06 10:51:21 88° 253° (WSW) 10:55:37 437.405
HO-68 07 Feb 10:47:32 10:50:56 14° 307° (NW) 10:54:18 435.675
PCSat 07 Feb 10:48:43 10:53:39 38° 110° (ESE) 10:58:38 145.827
ESTCUBE 1 07 Feb 10:52:27 10:56:21 28° 96° (E) 11:00:14 437.505/2401.250
RS-15 07 Feb 10:52:34 11:02:14 37° 106° (ESE) 11:12:18 29.354- 29.394
NANOSAT C BR1 07 Feb 10:53:44 10:57:58 76° 257° (WSW) 11:02:13 145.865
DUCHIFAT 1 07 Feb 10:56:32 11:00:45 73° 258° (WSW) 11:04:59 145.980
QB50P1 07 Feb 11:00:07 11:04:19 61° 259° (W) 11:08:32 145.935-145.965
JAS-2 07 Feb 11:00:12 11:01:34 11° 55° (NE) 11:02:56 435.910
UWE-3 07 Feb 11:02:09 11:02:44 10° 296° (WNW) 11:03:18 435.000/436.395/437.385
AO-85 07 Feb 11:04:43 11:10:02 84° 119° (ESE) 11:15:34 145.980
UNISAT 6 07 Feb 11:06:09 11:08:15 13° 268° (W) 11:10:22 437.425
HUMSAT D 07 Feb 11:08:31 11:12:20 36° 288° (WNW) 11:16:11 437.325/437.525
CUBEBUG 1 07 Feb 11:10:58 11:14:53 31° 97° (E) 11:18:46 437.445
UKube-1 07 Feb 11:11:54 11:15:54 35° 98° (E) 11:19:51 .
JUGNU 07 Feb 11:12:09 11:13:42 11° 180° (S) 11:15:15 437.505
DX 1 07 Feb 11:18:25 11:22:41 50° 100° (E) 11:26:53 434.975-435.025
AIST 1 07 Feb 11:20:06 11:24:25 56° 280° (W) 11:28:46
50 SAT 07 Feb 11:21:39 11:25:26 69° 101° (ESE) 11:29:14 437.505
SPROUT 07 Feb 11:27:15 11:29:58 16° 93° (E) 11:32:40 437.525
Oscar 19 07 Feb 11:38:22 11:42:03 20° 64° (ENE) 11:45:44 437.125/150
CUSAT 1 07 Feb 11:49:19 11:52:51 16° 60° (ENE) 11:55:55 437.405
Cosmos 2499 07 Feb 11:53:24 12:00:29 27° 292° (WNW) 12:07:46 435.465 / 435.565
POLYITAN 1 07 Feb 11:53:27 11:56:01 15° 267° (W) 11:58:33 437.675
QB50P2 07 Feb 11:54:26 11:56:50 15° 267° (W) 11:59:15 145.880/145.840
DANDE 07 Feb 11:57:57 12:01:22 14° 56° (ENE) 12:04:27 436.750
VELOX 1 07 Feb 12:02:28 12:06:48 55° 287° (WNW) 12:11:05 145.980
BUGSAT 1 07 Feb 12:12:15 12:15:18 19° 266° (W) 12:18:21 437.445
AISAT 07 Feb 12:18:51 12:22:52 35° 289° (WNW) 12:26:50 437.250
ESTCUBE 1 07 Feb 12:29:17 12:33:04 26° 291° (WNW) 12:36:50 437.505/2401.250
PCSat 07 Feb 12:32:22 12:37:06 30° 308° (NW) 12:41:52 145.827
JAS-2 07 Feb 12:37:44 12:45:18 58° 72° (ENE) 12:52:20 435.910
AO-7 07 Feb 12:40:27 12:43:02 12° 45° (NE) 12:45:36 29.400- 29.500
ITAMSAT 1 07 Feb 12:41:35 12:44:33 16° 62° (ENE) 12:47:31 435.822/435.867
SRMSAT 07 Feb 12:42:38 12:44:09 11° 176° (S) 12:45:40 437.500
AO-85 07 Feb 12:47:35 12:51:16 18° 318° (NW) 12:55:00 145.980
CUBEBUG 1 07 Feb 12:47:39 12:50:58 21° 293° (WNW) 12:54:16 437.445
UKube-1 07 Feb 12:48:37 12:51:42 19° 294° (WNW) 12:54:46 .
DX 1 07 Feb 12:56:05 12:58:26 14° 296° (WNW) 13:00:45 434.975-435.025
SO-50 07 Feb 12:59:37 13:02:01 14° 39° (NE) 13:04:22 436.795
SPROUT 07 Feb 13:02:08 13:06:06 38° 288° (WNW) 13:10:02 437.525
RS-15 07 Feb 13:02:56 13:13:56 62° 308° (NW) 13:25:36 29.354- 29.394
Oscar 19 07 Feb 13:15:58 13:20:59 49° 260° (W) 13:26:01 437.125/150
YUBILEINY 07 Feb 13:17:41 13:24:25 23° 67° (ENE) 13:31:05 435.215
TISAT 1 07 Feb 13:22:03 13:26:11 63° 286° (WNW) 13:30:17 437.305
Gurwin Techsat 1B 07 Feb 13:23:34 13:28:50 72° 74° (ENE) 13:34:09 435.225
Cosmos 2491 07 Feb 13:28:25 13:28:48 10° 73° (ENE) 13:29:12 435.465 / 435.565
CUSAT 1 07 Feb 13:30:03 13:36:10 65° 265° (W) 13:40:43 437.405
SWISSCUBE 07 Feb 13:36:23 13:40:41 32° 97° (E) 13:44:58 437.505
DANDE 07 Feb 13:38:33 13:45:58 82° 79° (E) 13:51:33 436.750
ITUPSAT 1 07 Feb 14:11:20 14:16:08 67° 102° (ESE) 14:20:54 437.325
ITAMSAT 1 07 Feb 14:18:19 14:23:26 65° 258° (WSW) 14:28:38 435.822/435.867
BEESAT 07 Feb 14:21:42 14:26:31 87° 104° (ESE) 14:31:19 436.000
JAS-2 07 Feb 14:24:04 14:30:29 28° 266° (W) 14:36:36 435.910
AO-7 07 Feb 14:25:53 14:33:57 55° 66° (ENE) 14:42:02 29.400- 29.500
SRMSAT 07 Feb 14:31:43 14:32:22 10° 187° (S) 14:33:02 437.500
SO-50 07 Feb 14:38:26 14:43:16 86° 57° (ENE) 14:47:54 436.795
Cosmos 2504 07 Feb 14:44:44 14:49:58 17° 62° (ENE) 14:54:59 435.465 / 435.565
STARS 07 Feb 15:01:40 15:04:19 16° 93° (E) 15:06:57 437.465
Gurwin Techsat 1B 07 Feb 15:06:57 15:09:17 13° 270° (W) 15:11:38 435.225
KKS-1 07 Feb 15:10:04 15:14:11 37° 98° (E) 15:18:17 437.445
M-CUBED/EXP-1 PRIME 07 Feb 15:13:14 15:17:02 87° 250° (WSW) 15:20:35 437.505
YUBILEINY 07 Feb 15:13:14 15:22:03 73° 267° (W) 15:30:47 435.215
SWISSCUBE 07 Feb 15:14:23 15:18:20 26° 293° (WNW) 15:22:16 437.505
Cosmos 2491 07 Feb 15:15:14 15:23:49 67° 92° (E) 15:32:25 435.465 / 435.565
RS-15 07 Feb 15:20:52 15:29:30 23° 337° (NNW) 15:38:31 29.354- 29.394
DANDE 07 Feb 15:24:00 15:27:27 14° 283° (WNW) 15:30:32 436.750
AUBIESAT-1 07 Feb 15:25:35 15:29:21 75° 252° (WSW) 15:32:52 437.475
HORYU 2 07 Feb 15:33:40 15:38:02 61° 73° (ENE) 15:42:24 437.375
ITUPSAT 1 07 Feb 15:51:06 15:53:24 13° 298° (WNW) 15:55:42 437.325
BEESAT 07 Feb 16:03:00 16:03:34 10° 300° (WNW) 16:04:07 436.000
MOZHAYETS 4 07 Feb 16:19:44 16:24:25 85° 103° (ESE) 16:29:03
AO-7 07 Feb 16:19:45 16:26:59 32° 263° (W) 16:34:15 29.400- 29.500
ISS 07 Feb 16:27:37 16:30:49 60° 138° (SE) 16:34:02 145.825
Cosmos 2504 07 Feb 16:36:01 16:44:46 86° 83° (E) 16:52:53 435.465 / 435.565
STARS 07 Feb 16:36:45 16:40:52 42° 288° (WNW) 16:44:59 437.465
KKS-1 07 Feb 16:47:21 16:50:29 19° 294° (WNW) 16:53:36 437.445
CUBESAT XI-V 07 Feb 16:53:56 16:57:18 19° 93° (E) 17:00:38 437.345
LilacSat-2 07 Feb 16:56:28 16:59:23 21° 70° (ENE) 17:02:18 437.200
GOMX 1 07 Feb 17:05:11 17:06:59 12° 62° (ENE) 17:08:46 467.674
BEESAT 3 07 Feb 17:09:38 17:13:08 30° 114° (ESE) 17:16:40 437.485
HORYU 2 07 Feb 17:13:45 17:14:58 11° 269° (W) 17:16:11 437.375
YUBILEINY 07 Feb 17:14:13 17:17:09 12° 286° (WNW) 17:20:05 435.215
Cosmos 2491 07 Feb 17:14:27 17:21:19 25° 292° (WNW) 17:28:15 435.465 / 435.565
CUTE-I 07 Feb 17:15:36 17:20:44 52° 72° (ENE) 17:25:56 437.470
BRITE-PL 07 Feb 17:19:54 17:24:53 32° 69° (ENE) 17:29:48 437.365/2234.400
Cubesat XI-IV 07 Feb 17:28:19 17:33:35 69° 74° (ENE) 17:38:55 437.490
BEESAT 2 07 Feb 17:28:56 17:32:31 32° 114° (ESE) 17:36:07 435.950
O/OREOS (USA 219) 07 Feb 17:29:28 17:33:05 23° 59° (ENE) 17:36:42 437.305
RS-15 07 Feb 17:39:59 17:48:12 20° 14° (NNE) 17:56:34 29.354- 29.394
HO-68 07 Feb 17:41:08 17:44:25 14° 53° (NE) 17:47:41 435.675
AO-85 07 Feb 18:01:12 18:01:41 10° 33° (NNE) 18:02:09 145.980
ISS 07 Feb 18:05:03 18:07:30 19° 335° (NNW) 18:09:58 145.825
STRAND 1 07 Feb 18:07:56 18:10:40 14° 91° (E) 18:13:24 437.568
CANX-2 07 Feb 18:23:30 18:25:15 12° 64° (ENE) 18:27:01 2200.000
CUBESAT XI-V 07 Feb 18:30:25 18:34:49 40° 288° (WNW) 18:39:11 437.345
LilacSat-2 07 Feb 18:30:26 18:33:35 24° 264° (W) 18:36:43 437.200
Cosmos 2504 07 Feb 18:31:42 18:36:49 18° 283° (WNW) 18:41:46 435.465 / 435.565
DOVE 4 07 Feb 18:33:54 18:38:46 42° 72° (ENE) 18:43:25 437.250
GOMX 1 07 Feb 18:38:51 18:44:20 89° 77° (ENE) 18:49:38 467.674
GONETS M04 07 Feb 18:42:43 18:48:28 19° 64° (ENE) 18:54:10
BEESAT 3 07 Feb 18:47:42 18:50:54 23° 310° (NW) 18:54:08 437.485
CUTE-I 07 Feb 18:57:30 19:01:05 18° 267° (W) 19:04:42 437.470
BRITE-PL 07 Feb 18:58:03 19:03:12 35° 264° (W) 19:08:20 437.365/2234.400
AIST 2 07 Feb 19:03:29 19:07:15 34° 114° (ESE) 19:11:03 435.215
BEESAT 2 07 Feb 19:07:14 19:10:27 22° 311° (NW) 19:13:40 435.950
O/OREOS (USA 219) 07 Feb 19:08:25 19:12:33 34° 256° (WSW) 19:16:42 437.305
Cubesat XI-IV 07 Feb 19:11:35 19:14:09 13° 269° (W) 19:16:43 437.490
CUTE 1.7 + AOD 2 07 Feb 19:12:09 19:16:02 38° 72° (ENE) 19:19:57 437.475
COMPASS 1 07 Feb 19:14:24 19:17:37 22° 69° (ENE) 19:20:51 437.405
SEEDS 07 Feb 19:23:09 19:26:59 38° 72° (ENE) 19:30:53 437.485
HO-68 07 Feb 19:23:46 19:30:53 74° 72° (ENE) 19:38:05 435.675
PCSat 07 Feb 19:37:48 19:42:18 26° 50° (NE) 19:46:46 145.827
PRISM 07 Feb 19:37:59 19:41:49 34° 98° (E) 19:45:37 437.425
AO-85 07 Feb 19:38:28 19:43:31 52° 54° (NE) 19:48:08 145.980
ZACube-1 07 Feb 19:44:33 19:46:27 13° 65° (ENE) 19:48:22 437.345
AAUSAT CUBESAT 2 07 Feb 19:44:49 19:48:40 40° 73° (ENE) 19:52:34 437.432
STRAND 1 07 Feb 19:45:08 19:50:15 63° 287° (WNW) 19:55:19 437.568
CINEMA 3 07 Feb 19:47:28 19:52:12 84° 75° (ENE) 19:56:44 145.822/145.860
Cosmos 2499 07 Feb 19:52:58 19:59:07 22° 65° (ENE) 20:04:56 435.465 / 435.565
RS-15 07 Feb 19:53:25 20:04:58 46° 46° (NE) 20:16:39 29.354- 29.394
FUNcube-1 07 Feb 19:54:17 19:56:49 16° 67° (ENE) 19:59:20 145.935
CANX-2 07 Feb 19:56:31 20:00:38 54° 260° (W) 20:04:47 2200.000
CUBEBUG 2 07 Feb 20:12:03 20:16:20 54° 74° (ENE) 20:20:30 437.445
DOVE 4 07 Feb 20:12:40 20:16:33 21° 266° (W) 20:20:19 437.250
UWE-3 07 Feb 20:18:24 20:22:29 44° 73° (ENE) 20:26:31 435.000/436.395/437.385
GOMX 1 07 Feb 20:21:54 20:22:55 10° 271° (W) 20:23:57 467.674
HUMSAT D 07 Feb 20:26:37 20:27:09 10° 64° (ENE) 20:27:41 437.325/437.525
Oscar 11 07 Feb 20:29:11 20:33:22 54° 74° (ENE) 20:37:35 145.826/435.025
GONETS M04 07 Feb 20:37:37 20:46:28 88° 264° (W) 20:55:19
AIST 2 07 Feb 20:42:28 20:45:48 23° 311° (NW) 20:49:10 435.215
CUTE 1.7 + AOD 2 07 Feb 20:49:24 20:52:02 16° 267° (W) 20:54:40 437.475
COMPASS 1 07 Feb 20:49:31 20:53:03 27° 264° (W) 20:56:37 437.405
SEEDS 07 Feb 21:00:17 21:02:51 16° 267° (W) 21:05:27 437.485
PRISM 07 Feb 21:13:59 21:16:53 18° 294° (WNW) 21:19:46 437.425
HO-68 07 Feb 21:14:22 21:19:12 19° 268° (W) 21:24:05 435.675
ZACube-1 07 Feb 21:18:11 21:22:19 51° 260° (W) 21:26:25 437.345
DELFI C3 07 Feb 21:18:26 21:22:22 73° 257° (WSW) 21:26:23 145.870
AO-85 07 Feb 21:20:11 21:23:30 18° 253° (WSW) 21:26:38 145.980
PCSat 07 Feb 21:20:43 21:25:54 46° 248° (WSW) 21:31:02 145.827
ISS 07 Feb 21:21:09 21:22:39 13° 16° (NNE) 21:24:09 145.825
AAUSAT CUBESAT 2 07 Feb 21:22:00 21:24:21 15° 268° (W) 21:26:43 437.432
UNISAT 6 07 Feb 21:22:28 21:23:27 11° 91° (E) 21:24:27 437.425
VELOX 1 07 Feb 21:25:46 21:26:44 11° 62° (ENE) 21:27:43 145.980
AIST 1 07 Feb 21:28:44 21:32:34 29° 76° (ENE) 21:36:21
FUNcube-1 07 Feb 21:28:45 21:32:45 40° 261° (W) 21:36:43 145.935
AISAT 07 Feb 21:39:58 21:42:45 16° 65° (ENE) 21:45:33 437.250
Cosmos 2499 07 Feb 21:44:45 21:53:13 75° 266° (W) 22:00:58 435.465 / 435.565
ESTCUBE 1 07 Feb 21:51:07 21:54:39 23° 67° (ENE) 21:58:11 437.505/2401.250
CUBEBUG 2 07 Feb 21:51:32 21:53:14 12° 268° (W) 21:54:54 437.445
UWE-3 07 Feb 21:56:53 21:59:10 14° 268° (W) 22:01:25 435.000/436.395/437.385
HUMSAT D 07 Feb 21:58:12 22:02:15 63° 259° (W) 22:06:19 437.325/437.525
50 SAT 07 Feb 22:01:10 22:04:17 26° 71° (ENE) 22:07:26 437.505
ANTELSAT 07 Feb 22:04:58 22:08:55 34° 97° (E) 22:12:55 437.575/2403.000
UKube-1 07 Feb 22:05:31 22:09:08 26° 69° (ENE) 22:12:46 .
CUBEBUG 1 07 Feb 22:05:59 22:09:31 24° 68° (ENE) 22:13:04 437.445
RS-15 07 Feb 22:06:02 22:17:51 59° 248° (WSW) 22:29:44 29.354- 29.394
Oscar 11 07 Feb 22:08:14 22:09:49 12° 269° (W) 22:11:25 145.826/435.025
TIGRISAT 07 Feb 22:12:39 22:16:42 39° 99° (E) 22:20:48 435.000
DX 1 07 Feb 22:12:39 22:16:41 37° 71° (ENE) 22:20:45 434.975-435.025
SPROUT 07 Feb 22:21:16 22:22:52 12° 64° (ENE) 22:24:28 437.525
POPSAT HIP 1 07 Feb 22:34:28 22:37:05 16° 93° (E) 22:39:40 437.405
GONETS M04 07 Feb 22:37:07 22:41:56 16° 283° (WNW) 22:46:47
NANOSAT C BR1 07 Feb 22:40:28 22:43:23 18° 94° (E) 22:46:18 145.865
DUCHIFAT 1 07 Feb 22:42:58 22:45:56 19° 94° (E) 22:48:52 145.980
QB50P1 07 Feb 22:46:46 22:50:05 22° 95° (E) 22:53:24 145.935-145.965
UNISAT 6 07 Feb 22:56:15 23:00:32 61° 285° (WNW) 23:04:52 437.425
ISS 07 Feb 22:56:33 22:59:43 49° 35° (NE) 23:02:52 145.825
VELOX 1 07 Feb 22:58:07 23:02:34 74° 257° (WSW) 23:07:04 145.980
AIST 1 07 Feb 23:06:45 23:09:57 20° 272° (W) 23:13:08
AISAT 07 Feb 23:14:34 23:18:52 46° 261° (W) 23:23:11 437.250
ESTCUBE 1 07 Feb 23:27:14 23:31:16 32° 263° (W) 23:35:21 437.505/2401.250
50 SAT 07 Feb 23:35:47 23:38:20 18° 266° (W) 23:40:53 437.505
POLYITAN 1 07 Feb 23:37:41 23:41:54 88° 283° (WNW) 23:46:06 437.675
QB50P2 07 Feb 23:38:28 23:42:41 83° 284° (WNW) 23:46:54 145.880/145.840
UKube-1 07 Feb 23:41:30 23:45:06 25° 264° (W) 23:48:44 .
CUBEBUG 1 07 Feb 23:41:47 23:45:40 29° 264° (W) 23:49:33 437.445
Cosmos 2499 07 Feb 23:41:54 23:44:35 12° 286° (WNW) 23:47:14 435.465 / 435.565
ANTELSAT 07 Feb 23:42:16 23:45:26 20° 292° (WNW) 23:48:37 437.575/2403.000
DX 1 07 Feb 23:49:58 23:52:59 18° 266° (W) 23:56:02 434.975-435.025
TIGRISAT 07 Feb 23:50:15 23:53:07 17° 293° (WNW) 23:55:59 435.000
SPROUT 07 Feb 23:54:04 23:58:19 61° 259° (W) 00:02:35 437.525
BUGSAT 1 07 Feb 23:54:05 23:58:07 65° 102° (ESE) 00:02:05 437.445
POPSAT HIP 1 08 Feb 00:09:07 00:13:01 38° 288° (WNW) 00:16:55 437.405
TISAT 1 08 Feb 00:12:07 00:16:21 79° 78° (ENE) 00:20:36 437.305
NANOSAT C BR1 08 Feb 00:15:26 00:19:12 33° 289° (WNW) 00:22:58 145.865
DUCHIFAT 1 08 Feb 00:17:58 00:21:43 32° 289° (WNW) 00:25:26 145.980
QB50P1 08 Feb 00:22:17 00:25:51 27° 290° (WNW) 00:29:24 145.935-145.965
ISS 08 Feb 00:33:52 00:35:53 15° 230° (SW) 00:37:53 145.825
SWISSCUBE 08 Feb 00:41:44 00:45:56 32° 69° (ENE) 00:50:10 437.505
CUSAT 1 08 Feb 00:48:01 00:54:08 26° 84° (E) 01:00:28 437.405
DANDE 08 Feb 01:03:02 01:08:04 19° 79° (E) 01:13:27 436.750
ITUPSAT 1 08 Feb 01:16:43 01:21:25 66° 74° (ENE) 01:26:11 437.325
BEESAT 08 Feb 01:26:41 01:31:26 86° 76° (ENE) 01:36:14 436.000
Cosmos 2491 08 Feb 01:27:34 01:35:05 31° 70° (ENE) 01:42:33 435.465 / 435.565
PHONESAT 2.4 08 Feb 01:27:36 01:30:29 29° 153° (SSE) 01:33:23 2401.200-2431.200
Oscar 19 08 Feb 01:28:35 01:33:42 65° 102° (ESE) 01:38:45 437.125/150
BEESAT 3 08 Feb 01:29:01 01:31:20 15° 45° (NE) 01:33:39 437.485
JAS-2 08 Feb 01:34:53 01:40:24 48° 98° (E) 01:45:28 435.910
Gurwin Techsat 1B 08 Feb 01:41:25 01:46:07 31° 96° (E) 01:50:47 435.225
BEESAT 2 08 Feb 01:48:59 01:51:27 16° 46° (NE) 01:53:56 435.950
STARS 08 Feb 01:58:08 02:00:12 13° 64° (ENE) 02:02:16 437.465
KKS-1 08 Feb 02:07:00 02:10:54 30° 69° (ENE) 02:14:48 437.445
YUBILEINY 08 Feb 02:17:42 02:24:39 27° 82° (E) 02:31:38 435.215
SWISSCUBE 08 Feb 02:19:53 02:23:44 25° 265° (W) 02:27:39 437.505
CUSAT 1 08 Feb 02:28:01 02:35:45 68° 282° (WNW) 02:43:53 437.405
AO-7 08 Feb 02:30:45 02:35:51 17° 91° (E) 02:40:55 29.400- 29.500
ITAMSAT 1 08 Feb 02:32:23 02:37:28 49° 100° (E) 02:42:31 435.822/435.867
DANDE 08 Feb 02:42:23 02:49:48 86° 279° (W) 02:58:21 436.750
ITUPSAT 1 08 Feb 02:58:01 02:59:42 12° 270° (W) 03:01:24 437.325
PHONESAT 2.4 08 Feb 03:04:19 03:07:35 83° 345° (NNW) 03:10:53 2401.200-2431.200
BEESAT 3 08 Feb 03:05:33 03:09:26 53° 243° (WSW) 03:13:15 437.485
Oscar 19 08 Feb 03:09:33 03:12:27 15° 298° (WNW) 03:15:19 437.125/150
MOZHAYETS 4 08 Feb 03:20:10 03:24:41 68° 75° (ENE) 03:29:14
JAS-2 08 Feb 03:20:53 03:25:02 21° 298° (WNW) 03:28:57 435.910
Gurwin Techsat 1B 08 Feb 03:21:21 03:25:59 31° 292° (WNW) 03:30:37 435.225
Cosmos 2491 08 Feb 03:23:50 03:32:17 56° 270° (W) 03:40:45 435.465 / 435.565
Cosmos 2504 08 Feb 03:24:06 03:27:41 13° 74° (ENE) 03:31:20 435.465 / 435.565
BEESAT 2 08 Feb 03:25:46 03:29:39 50° 243° (WSW) 03:33:29 435.950
AIST 2 08 Feb 03:26:28 03:29:20 18° 46° (NE) 03:32:11 435.215
HORYU 2 08 Feb 03:27:44 03:29:42 13° 92° (E) 03:31:41 437.375
STARS 08 Feb 03:31:44 03:36:05 57° 259° (W) 03:40:26 437.465
KKS-1 08 Feb 03:43:53 03:47:27 23° 265° (W) 03:51:03 437.445
CUBESAT XI-V 08 Feb 03:56:35 03:59:35 17° 65° (ENE) 04:02:37 437.345
YUBILEINY 08 Feb 04:12:07 04:20:45 61° 281° (W) 04:29:30 435.215
ITAMSAT 1 08 Feb 04:12:48 04:16:33 20° 296° (WNW) 04:20:18 435.822/435.867
CUSAT 1 08 Feb 04:15:36 04:19:29 14° 300° (WNW) 04:23:26 437.405
AO-7 08 Feb 04:21:10 04:29:33 88° 289° (WNW) 04:37:51 29.400- 29.500
M-CUBED/EXP-1 PRIME 08 Feb 04:28:09 04:31:31 84° 107° (ESE) 04:35:04 437.505
DANDE 08 Feb 04:28:53 04:34:06 19° 299° (WNW) 04:39:38 436.750
AUBIESAT-1 08 Feb 04:39:53 04:43:18 84° 288° (WNW) 04:46:54 437.475
PHONESAT 2.4 08 Feb 04:41:44 04:45:00 66° 6° (N) 04:48:15 2401.200-2431.200
